STARLINK-34138, 63971

Orbit data source: Space-Track

STARLINK-34138, 63971 is a payload satellite owned by SpaceX/Seattle (US) in LEO that was launched on Tue, 13 May 2025 UTC via an FALCON 9 launch vehicle from the Air Force Eastern Test Range (AFETR). Payload-class satellites include a variety of spacecraft equipped with specific instruments for various scientific and technological missions. These include communications satellites like Starlink; space stations such as the ISS; scientific satellites like the Hubble; Earth observation satellites from companies like Planet Labs, Umbra, and HawkEye 360; GPS; miniature CubeSats for education and research; and military/defense satellites.

Loading next visibility...
Identifier
63971, 2025-099V
Orbit
LEO
Country
Flag of USUS
Related business
Manufacturer
SpaceX/Seattle
Mission
Operational Commercial Communications
Bus & Motor
STARLINK V2MO, Unknown motor
Mass
575 kg wet, ~530 kg dry
Launch date (UTC)
2025-05-13 (7 months ago)
Launch vehicle
FALCON 9
Launch site
Air Force Eastern Test Range (AFETR)
Object type
Payload
Rocket body
Debris
Shape & HBR
Box + 2 Pan, 17.7 m
Radar Cross Section
36.964 m², Large (>1 m²)

Expand to show TLE details & history
Last TLE update: 1 day ago

TLE from 1 day ago
0 STARLINK-34138
1 63971U 25099V   25346.31389041  .00031712  00000-0  11574-2 0  9994
2 63971  43.0013 306.1760 0001811 269.2906  90.7738 15.27568471 34015
Epoch: 2025-12-12T07:32Z
TLE epoch observation values (Epoch: 2025-12-12T07:32:00.131Z)
Latitude
-0.00003°
Longitude
111.91813°
Altitude
482.876 km
Speed
7.626 km/s
True Right ascension
20h 24m 42s
True Declination
0° 00' 00"
Sunlit
Object was in daylight at epoch
Visualization orbit readout
Latitude
Unknown
Longitude
Unknown
Altitude
Unknown
Speed
Unknown
Apparent Right ascension
Unknown
Apparent Declination
Unknown
Sunlit
N/A
Visualization observer readout
Local Sidereal Time
07:26:32
Azimuth
Unknown
Elevation
Unknown
Doppler factor
Unknown
Orbital elements
Apogee altitude
486.271 km
Perigee altitude
483.786 km
Semi-major axis
6,863.166 km
Eccentricity
0.00018
Inclination
43.0013°
RAAN
306.176°
Arg. of periapsis
269.2906°
True anomaly
90.79455°
Mean anomaly
90.7738°
Eccentric anomaly
90.78418°
Mean motion
3.8173 °/min
Orbital period
94.31 mins
BSTAR
0.0011574
Loading maneuver chart data...
Computing Atmospheric mass density...
Loading historical data...
Loading historical data...
Loading historical data...
Loading historical data...
Loading historical data...
Loading historical data...
Loading historical data...

Documentation

Showing up to 5 results
|